Vorticity
5 4 4 6 6 6 6 6 5 5 6 3 3 9 19 4 5 6 8 9 10 11 10 7 6 8 8 7 8 10 10 9 7 7 10 8 10 5 11 5 5 8 8
5 6 5 4 3 4 4 4 6 6 6 7 6 7 23 8 6 7 6 6 5 6 6 7 8 7 7 7 5 7 8 8 7 7 8 8 8 9 7 8 9 5 5
1 2 4 2 3 2 2 2 3 3 4 4 4 6 6 13 1 8 6 7 6 6 5 5 5 5 6 6 7 6 5 5 6 5 5 6 6 6 7 7 7 8 6
4 3 5 4 4 5 2 5 3 3 4 3 4 5 5 6 7 8 1 5 4 5 6 5 5 1 4 4 3 6 4 8 6 5 4 3 4 5 5 5 6 7 6
10 4 6 1 4 8 -1 6 -1 5 4 5 4 6 6 9 6 7 9 5 7 8 9 3 -7 33 0 7 5 5 4 8 6 6 6 4 3 12 3 14 8 7 6
0 -1 9 10 8 11 6 8 2 5 7 7 12 7 2 0 7 10 5 5 4 8 5 7 6 10 1 12 10 11 11 5 7 7 8 8 6 6 5 4 6 7 7
18 7 -13 10 -6 5 10 -11 24 14 13 16 10 -12 8 13 10 0 5 8 6 4 6 5 7 6 6 5 4 -1 3 3 3 6 4 6 4 4 6 6 6 5 4
23 21 10 4 -3 1 4 3 10 -16 0 11 19 4 11 -1 -0 14 8 14 9 10 -6 12 20 8 7 3 -0 3 5 9 18 11 5 3 5 5 3 3 3 3 2
-10 4 17 -7 9 7 4 -17 1 -24 -13 3 2 19 25 24 -4 -2 -6 20 15 3 24 -1 12 0 20 0 4 10 5 6 16 1 -6 3 20 18 3 2 7 7 4
-8 38 22 31 3 17 4 -16 27 3 -4 18 13 30 -10 3 -39 9 -4 9 2 -2 31 12 8 11 31 16 10 0 -2 13 3 5 1 6 6 -0 17 9 3 15 10
-2 -5 12 6 -7 11 4 9 16 38 -4 39 0 8 0 1 17 10 -1 -5 5 19 5 5 14 7 -2 1 3 13 18 8 5 11 4 2 7 15 9 9 11 11 19
20 37 6 -19 19 -13 48 40 7 20 1 -33 -3 42 -3 13 -2 -6 17 64 58 19 3 15 5 14 13 18 21 10 13 11 8 13 14 13 10 9 15 11 11 18 9
12 2 17 17 -3 17 6 32 17 59 11 7 16 6 22 9 12 32 12 -9 6 3 -12 11 16 30 12 19 8 10 6 5 6 11 15 15 18 7 11 19 17 16 9
1 3 3 -8 8 4 16 7 30 14 11 31 33 49 60 34 27 44 37 13 13 9 7 14 8 7 6 5 6 7 7 7 7 6 7 6 8 9 8 7 7 4 6
10 5 13 -4 0 8 12 20 2 18 11 31 -26 9 20 11 -1 -1 11 24 -7 3 5 5 5 4 -0 -0 -1 -1 -0 0 2 4 5 5 6 8 9 7 9 10 10
-2 -5 5 -0 7 23 14 6 11 8 16 -0 9 -6 9 4 -4 6 -3 2 11 4 4 3 2 4 3 4 3 4 1 5 7 1 5 4 7 6 8 11 11 10 9
17 21 16 17 16 9 2 7 10 18 5 2 7 6 22 -2 -12 -3 13 -18 13 9 4 -1 3 4 4 5 2 1 1 4 2 -14 -7 12 8 7 12 7 10 10 6
8 7 7 9 7 10 11 8 9 10 13 14 11 8 6 12 11 11 9 9 3 7 10 11 13 19 15 3 9 22 24 17 11 4 13 10 7 10 8 13 14 6 14
13 15 15 15 17 17 19 22 15 8 11 17 14 15 15 14 12 11 8 5 6 7 5 9 12 -7 -13 -5 12 16 -34 -8 11 3 35 -26 18 14 14 4 -0 3 2
15 14 12 11 11 12 14 15 16 16 18 16 14 13 13 16 16 13 12 11 11 11 6 9 11 8 9 12 13 16 20 11 12 20 11 -14 18 16 12 9 9 4 4
14 17 19 19 15 10 12 13 15 17 16 16 14 14 15 18 19 20 20 17 10 9 9 11 18 18 22 20 20 17 7 24 13 3 0 -3 27 26 27 32 34 36 35
18 16 12 12 12 10 8 8 7 7 7 7 7 6 7 7 9 8 9 8 10 10 12 12 12 12 10 11 11 13 14 15 16 22 24 21 23 16 16 17 10 9 7
6 4 5 5 4 5 6 7 8 7 7 6 7 8 7 11 15 11 9 10 10 9 9 9 9 11 11 13 13 14 16 15 12 10 10 10 11 9 11 15 14 14 17
8 8 8 7 6 5 6 7 8 11 13 13 13 13 13 14 11 10 13 13 15 15 17 16 16 16 15 14 14 15 16 15 15 15 15 15 13 14 14 14 14 13 14
4 2 3 4 7 10 13 15 15 14 10 10 12 11 13 14 16 14 15 14 13 14 13 13 14 13 14 15 15 15 14 14 14 15 14 14 15 16 16 13 14 13 13
14 16 18 16 17 18 16 12 10 9 9 11 12 11 10 9 11 13 14 13 12 11 11 12 14 15 14 14 14 16 17 19 21 21 21 20 18 19 18 17 15 15 16
Height
5922 5923 5925 5927 5930 5932 5934 5935 5936 5938 5940 5940 5941 5942 5942 5942 5943 5944 5944 5945 5945 5945 5945 5945 5944 5945 5944 5943 5943 5943 5944 5943 5941 5940 5939 5938 5938 5938 5938 5937 5936 5937 5936
5918 5920 5922 5924 5926 5928 5929 5931 5932 5934 5936 5937 5938 5938 5939 5939 5940 5942 5942 5942 5942 5943 5942 5942 5942 5942 5942 5942 5941 5942 5942 5942 5941 5940 5939 5938 5937 5936 5936 5936 5936 5936 5935
5913 5915 5917 5919 5920 5921 5924 5926 5928 5929 5931 5932 5933 5934 5936 5937 5937 5938 5939 5940 5940 5940 5941 5941 5940 5940 5940 5940 5940 5940 5939 5940 5939 5938 5937 5936 5935 5935 5935 5934 5934 5934 5934
5905 5907 5910 5912 5914 5915 5917 5920 5922 5924 5926 5927 5928 5930 5931 5933 5933 5933 5934 5934 5934 5935 5936 5937 5937 5937 5936 5936 5937 5937 5937 5937 5936 5934 5933 5932 5932 5931 5930 5931 5931 5931 5931
5899 5902 5905 5906 5907 5909 5911 5913 5915 5918 5919 5921 5922 5923 5925 5926 5927 5927 5929 5929 5930 5930 5931 5931 5932 5931 5933 5932 5932 5932 5932 5931 5931 5929 5927 5926 5925 5925 5924 5924 5926 5927 5926
5892 5896 5898 5900 5901 5904 5906 5906 5908 5911 5912 5914 5916 5917 5918 5919 5919 5920 5922 5923 5925 5925 5925 5925 5925 5925 5928 5928 5928 5928 5928 5926 5924 5922 5922 5920 5919 5919 5918 5917 5916 5917 5919
5885 5890 5891 5895 5896 5897 5899 5900 5902 5903 5903 5905 5908 5910 5911 5911 5911 5912 5914 5916 5916 5917 5918 5919 5919 5920 5920 5921 5922 5922 5922 5921 5919 5919 5917 5915 5915 5914 5914 5911 5908 5906 5907
5879 5883 5885 5885 5888 5889 5893 5893 5895 5892 5896 5896 5898 5900 5901 5902 5904 5904 5905 5907 5908 5908 5909 5910 5911 5913 5913 5913 5913 5914 5914 5914 5914 5913 5912 5910 5907 5906 5905 5904 5902 5900 5897
5872 5873 5875 5876 5879 5880 5882 5881 5878 5878 5886 5887 5889 5889 5891 5891 5893 5895 5896 5897 5898 5899 5900 5900 5900 5901 5902 5904 5904 5904 5905 5905 5904 5905 5904 5903 5902 5900 5897 5895 5894 5893 5889
5859 5863 5867 5869 5868 5870 5873 5873 5873 5873 5871 5878 5879 5880 5881 5882 5882 5882 5886 5887 5888 5889 5889 5890 5889 5890 5890 5893 5894 5894 5893 5894 5894 5893 5894 5893 5890 5888 5888 5887 5886 5883 5881
5852 5856 5856 5858 5859 5861 5862 5863 5865 5864 5865 5868 5870 5871 5872 5872 5873 5874 5876 5875 5877 5877 5878 5879 5880 5880 5881 5883 5884 5883 5883 5883 5883 5882 5883 5881 5880 5879 5877 5876 5874 5871 5870
5849 5847 5849 5851 5851 5853 5853 5855 5855 5855 5859 5858 5858 5860 5861 5862 5862 5864 5865 5863 5863 5864 5865 5867 5868 5870 5870 5871 5872 5873 5873 5873 5873 5872 5871 5870 5869 5867 5866 5865 5863 5862 5859
5843 5844 5845 5846 5847 5847 5847 5846 5847 5848 5849 5849 5849 5850 5851 5850 5850 5852 5853 5851 5850 5854 5854 5855 5856 5857 5857 5859 5861 5864 5863 5862 5862 5861 5860 5859 5858 5857 5856 5854 5852 5851 5850
5836 5837 5837 5838 5839 5841 5840 5841 5841 5840 5840 5839 5839 5839 5840 5841 5842 5842 5843 5843 5842 5843 5844 5844 5845 5847 5849 5851 5852 5853 5851 5851 5851 5850 5849 5850 5848 5846 5845 5844 5842 5840 5837
5828 5830 5830 5829 5829 5829 5829 5830 5829 5832 5833 5833 5834 5834 5835 5836 5835 5835 5837 5836 5835 5837 5837 5838 5839 5839 5839 5840 5841 5840 5839 5839 5838 5838 5837 5836 5835 5833 5832 5831 5830 5827 5825
5820 5821 5820 5820 5820 5820 5820 5821 5822 5823 5824 5823 5825 5825 5825 5828 5829 5824 5826 5828 5829 5830 5829 5828 5827 5827 5827 5828 5828 5828 5827 5825 5824 5824 5823 5821 5819 5818 5816 5816 5815 5813 5811
5808 5809 5810 5810 5810 5811 5810 5810 5812 5812 5813 5814 5813 5814 5814 5815 5815 5815 5817 5818 5817 5817 5817 5818 5817 5817 5815 5814 5813 5814 5813 5811 5810 5809 5807 5806 5804 5802 5801 5800 5797 5796 5795
5796 5798 5799 5799 5800 5800 5800 5800 5800 5801 5800 5801 5802 5801 5801 5803 5802 5803 5802 5802 5803 5802 5802 5802 5803 5802 5802 5801 5799 5798 5796 5794 5793 5791 5788 5787 5786 5784 5782 5781 5779 5777 5775
5787 5787 5788 5788 5789 5790 5789 5789 5790 5789 5790 5789 5789 5789 5790 5789 5789 5789 5789 5788 5786 5786 5786 5786 5787 5784 5782 5781 5780 5780 5777 5775 5775 5774 5771 5769 5767 5766 5765 5762 5760 5759 5757
5781 5781 5780 5780 5779 5778 5778 5778 5777 5777 5778 5777 5776 5776 5775 5775 5774 5773 5773 5771 5771 5770 5769 5768 5768 5766 5764 5763 5762 5760 5759 5757 5755 5754 5753 5751 5748 5743 5742 5740 5738 5735 5734
5772 5773 5773 5772 5772 5770 5768 5768 5766 5765 5765 5764 5764 5763 5762 5761 5759 5758 5758 5757 5756 5754 5753 5751 5750 5749 5746 5744 5744 5742 5739 5736 5734 5732 5730 5727 5725 5723 5721 5719 5717 5714 5711
5765 5765 5764 5764 5763 5762 5762 5761 5760 5759 5757 5755 5753 5753 5753 5751 5749 5747 5746 5744 5742 5740 5738 5736 5734 5732 5730 5727 5724 5721 5718 5716 5714 5713 5710 5708 5705 5703 5702 5700 5698 5697 5696
5758 5758 5758 5758 5756 5755 5754 5752 5750 5748 5746 5743 5741 5739 5737 5734 5732 5730 5728 5727 5725 5724 5721 5718 5715 5713 5710 5707 5705 5703 5701 5699 5697 5695 5693 5691 5688 5686 5684 5682 5681 5680 5678
5751 5749 5748 5747 5746 5744 5742 5740 5738 5736 5734 5731 5729 5726 5723 5720 5717 5714 5712 5709 5707 5705 5702 5700 5697 5695 5693 5691 5688 5686 5685 5683 5681 5679 5676 5674 5671 5670 5667 5667 5664 5662 5660
5739 5738 5737 5736 5734 5732 5729 5726 5723 5721 5719 5716 5713 5711 5708 5705 5702 5699 5697 5695 5692 5689 5687 5684 5681 5679 5677 5674 5672 5670 5667 5665 5663 5661 5659 5657 5655 5654 5653 5651 5649 5647 5644
5729 5728 5726 5725 5723 5720 5717 5715 5713 5711 5708 5705 5701 5698 5696 5693 5690 5686 5682 5679 5676 5673 5670 5667 5664 5662 5659 5656 5655 5653 5651 5650 5648 5645 5643 5641 5640 5638 5637 5635 5634 5632 5630